Other Public Products
Issued by NWS Grand Forks, ND

Home | Current Version | Previous Version | Graphics & Text | Print | Product List | Glossary On
Versions: 1 2 3 4 5 6 7 8 9 10 11 12 13 14 15 16 17 18 19 20 21 22 23 24 25 26 27 28 29 30 31 32 33 34 35 36 37 38 39 40 41 42 43 44 45 46 47 48 49 50
000
FPUS83 KFGF 190410
OPUFGF
PRAIRIE TO PINES WEATHER ROUNDUP
NATIONAL WEATHER SERVICE EASTERN NORTH DAKOTA/GRAND FORKS ND
1000 PM CST SAT NOV 18 2017

 **SATELLITE DATA USED TO AUGMENT SKY COVER AT AUTOMATED STATIONS**
 *****  WEATHER ACROSS EASTERN NORTH DAKOTA  *****

CITY           SKY/WX    TMP DP  RH WIND       PRES   REMARKS
GRAND FORKS    FAIR      13   7  77 W9        30.04S WCI   1
GRND FORKS AFB FAIR      16   8  69 NW13      30.04R WCI   2
GRND FORKS NWS   N/A     14 N/A N/A NW1         N/A
BUXTON         NOT AVBL
DEVILS LAKE    FAIR      12   8  84 W7        30.01F WCI   1
FARGO          FAIR      15   9  76 W7        30.06F WCI   5
WAHPETON ARPT  NOT AVBL
$$

 *****  WEATHER ACROSS CENTRAL AND WESTERN NORTH DAKOTA  *****

CITY           SKY/WX    TMP DP  RH WIND       PRES   REMARKS
JAMESTOWN      FAIR      16  12  84 SW7       30.03F WCI   6
BISMARCK       FAIR      25  18  74 W3        30.06S
MINOT          FAIR      26  17  68 W12       29.98F WCI  16
MINOT AFB      FAIR      19  14  81 W9        29.97F WCI   8
GARRISON         N/A     22  17  81 W10       30.00S WCI  11
WILLISTON      FAIR      27  19  72 W10       30.00F WCI  17
DICKINSON      FAIR      27  21  78 W10       30.00S WCI  17
HETTINGER      FAIR      19  15  84 NW5       30.08S WCI  12
$$

 *****  OTHER OBSERVATIONS NORTHEAST NORTH DAKOTA  *****

CITY           SKY/WX    TMP DP  RH WIND       PRES   REMARKS
WALHALLA       FAIR      16   5  62 W12G18    30.00F WCI   3
LANGDON        NOT AVBL
CAVALIER       FAIR      14   5  67 W14       30.01S WCI  -1
GRAFTON        NOT AVBL
CANDO          FAIR      10   9  92 W7        30.01F WCI   0
FORT TOTTEN      N/A     12   6  78 CALM      29.95S
ROLLA          FAIR      14   7  73 CALM      29.96S
RUGBY          NOT AVBL
 ***** THE ABOVE OBSERVATIONS ARE NON NWS ARE NOT QUALITY
        CONTROLLED AND MAY MIS-REPORT RAIN FOR SNOW...
$$

 *****  OTHER OBSERVATIONS SOUTHEAST NORTH DAKOTA *****

CITY           SKY/WX    TMP DP  RH WIND       PRES   REMARKS
COOPERSTOWN    FAIR      12   9  85 W9        30.04S WCI   0
VALLEY CITY    NOT AVBL
OAKES            N/A     16  12  86 W9        30.08S WCI   4
GWINNER          N/A     12   9  85 CALM      30.08S
SHEYENNE NWR     N/A     15  10  81 W6        29.95S WCI   6
BUFFALO        NOT AVBL
WYNDMERE       NOT AVBL
 ***** THE ABOVE OBSERVATIONS ARE NON NWS ARE NOT QUALITY
       CONTROLLED AND MAY MIS-REPORT RAIN FOR SNOW...
$$

  *****  WEATHER ACROSS NORTHERN MINNESOTA  *****

CITY           SKY/WX    TMP DP  RH WIND       PRES   REMARKS
FLAG ISLAND    FAIR       9   5  85 W10       29.94R WCI  -6
WARROAD        FAIR       9   5  85 W9        29.96S WCI  -5
ROSEAU         FAIR      12   7  79 W8        29.98R WCI   1
HALLOCK        FAIR       9   3  78 CALM      30.01S
THF RVR FALLS  FAIR      10   7  87 W10       30.01S WCI  -4
HALSTAD        NOT AVBL
FOSSTON        FAIR      10   7  85 W6        30.01R WCI   1
BAUDETTE       FAIR      11   5  77 W7        29.94S WCI   0
WASKISH        FAIR      12   9  85 W10G16    29.97S WCI  -1
CROOKSTON      FAIR      12   7  79 NW7       30.05S WCI   2
$$
  *****  WEATHER ACROSS CENTRAL AND WEST MINNESOTA  *****

CITY           SKY/WX    TMP DP  RH WIND       PRES   REMARKS
BEMIDJI        FAIR      12   7  81 W8        29.98R WCI   0
PARK RAPIDS    FAIR      15   8  73 W8        29.98F WCI   4
WADENA         FAIR      16   9  73 NW12      30.00F WCI   3
DETROIT LAKES  FAIR      18  10  73 W6        30.02F WCI   9
MOORHEAD       FAIR      12   7  79 CALM      30.07S
FERGUS FALLS   FAIR      10   7  85 W7        30.10S WCI   0
ELBOW LAKE     FAIR      14   9  80 NW6       30.07F HAZE    WCI   5
MORRIS MN      FAIR      18   9  68 NW8       30.07F WCI   7
STAPLES        FAIR      16   9  73 W10       30.00F WCI   3
WHEATON        FAIR      16   9  73 W5        30.12S WCI   9
$$
  *****  WEATHER ELSEWHERE ACROSS MINNESOTA  *****

CITY           SKY/WX    TMP DP  RH WIND       PRES   REMARKS
DULUTH         FLURRIES  16   9  74 NW13G20   29.90R WCI   2
INTRNTL FALLS  CLOUDY    15   7  70 W14       29.92S WCI   0
ELY            CLOUDY    14   7  73 NW9G16    29.89S WCI   2
CLOQUET        FLURRIES  18   9  68 NW10G17   29.93R WCI   6
BRAINERD       FAIR      17   8  67 NW10G20   30.00F WCI   5
HIBBING        CLOUDY    14   8  77 NW10      29.92S WCI   1
ALEXANDRIA     FAIR      17   9  70 W8        30.04S WCI   7
SAINT CLOUD    FAIR      19  11  70 NW20G28   30.03R WCI   3
MINNEAPOLIS    FAIR      22  13  68 NW18      30.03R WCI   7
$$

  *****  WEATHER ACROSS SOUTH DAKOTA  *****

CITY           SKY/WX    TMP DP  RH WIND       PRES   REMARKS
SIOUX FALLS    FAIR      25  16  68 W10       30.13R WCI  15
BROOKINGS      FAIR      20  14  77 CALM      30.11R
WATERTOWN      FAIR      15  12  88 W5        30.07S WCI   8
HURON          FAIR      20  15  81 W8        30.14S WCI  10
SISSETON         N/A     17  10  74 W6        30.09F WCI   9
ABERDEEN       FAIR      21  16  81 SW6       30.11F WCI  13
MITCHELL       FAIR      23  16  74 W7        30.17S WCI  15
PIERRE         FAIR      24  21  88 W5        30.12F WCI  18
MOBRIDGE       FAIR      23  16  74 SE3       30.08S
RAPID CITY     FAIR      22  16  78 CALM      30.15S
$$

  *****  SOME WEATHER IN NEARBY STATES *****

CITY           SKY/WX    TMP DP  RH WIND       PRES   REMARKS
GLASGOW MT     FAIR      29  21  72 CALM      30.00S
GREAT FALLS MT FAIR      37  16  42 SW23G32   30.01F
CHEYENNE WY    FAIR      30  10  43 W8        30.20S WCI  22
SCOTTSBLUFF NE FAIR      25  18  74 W3        30.22S
OMAHA NE       FAIR      33  21  61 NW9       30.19R
DES MOINES IA  FAIR      32  19  58 NW14      30.10R WCI  22
DAVENPORT IA   CLOUDY    32  25  75 NW17G29   29.97R WCI  21
CHICAGO IL     CLOUDY    39  28  64 NW24      29.79R
EAU CLAIRE WI  CLOUDY    25  14  63 NW14      29.93R WCI  13
LA CROSSE WI   CLOUDY    31  19  61 NW18G26   29.94R WCI  19
$$

  *****  SOME NATIONAL WEATHER *****

CITY           SKY/WX    TMP DP  RH WIND       PRES   REMARKS
LA GUARDIA NY  MOCLDY    55  50  83 S8        29.44F
RALEIGH NC     MOCLDY    62  53  72 SW15G24   29.63F
ATLANTA GA     RAIN      58  57  97 NW21G36   29.74R FOG
NEW ORLEANS LA CLOUDY    67  61  81 N13G23    29.96R
OKLAHOMA CITY  FAIR      41  28  60 NW7       30.28R
ALBUQUERQUE NM FAIR      42   5  21 N7        30.35R
SALT LAKE CITY FAIR      34  26  72 S3        30.36F
LOS ANGELES CA FAIR      65  52  62 CALM      30.07R
BOISE ID       FAIR      36  24  62 SE8       30.27S
SEATTLE WA     CLOUDY    46  38  73 SE8       30.14S
$$

*** WEATHER ACROSS MANITOBA...SASKATCHEWAN AND ONTARIO ***
                ***ONTARIO***

CITY           SKY/WX    TMP DP  RH WIND       PRES   REMARKS
GERALDTON      FLURRIES  12  10  92 W2        29.73R
THUNDER BAY    CLOUDY    21  12  68 NW13G21   29.85R WCI   9
SIOUX LOOKOUT  LGT SNOW  12   7  79 W8        29.84S WCI   1
TORONTO        LGT RAIN  41  39  93 N21G30    29.14S FOG
BIG TROUT LK   FLURRIES   9   3  78 W12G18    29.72F WCI  -6
PICKLE LAKE    NOT AVBL
DRYDEN         LGT SNOW  12   9  85 NW8       29.85S WCI   1
KENORA         FLURRIES  10   5  79 W7        29.90R WCI   0
$$
                *** MANITOBA***

CITY           SKY/WX    TMP DP  RH WIND       PRES   REMARKS
BRANDON        CLEAR      1  -4  78 W9        29.98F WCI -14
DAUPHIN        MOCLDY    12   5  73 W16       29.96R WCI  -4
ISLAND LAKE    FLURRIES  10   3  72 W15       29.76F WCI  -6
PILOT MOUND      N/A      7   3  85 SW3         N/A
THE PAS        CLEAR      1  -4  78 W12       29.87S WCI -15
THOMPSON       FLURRIES   9   3  78 W12G17    29.70S WCI  -6
WINNIPEG       CLEAR      9   1  72 W13       29.98F WCI  -7
LYNN LAKE      FLURRIES   9   5  85 NW14G26   29.71S WCI  -8
CHURCHILL      LGT SNOW   9   5  85 W14G20    29.46S DRFTSNOWWCI  -8
$$
                ***SASKATCHEWAN***

CITY           SKY/WX    TMP DP  RH WIND       PRES   REMARKS
ESTEVAN        PTCLDY    12   9  85 SW6       29.96F WCI   3
KINDERSLEY     CLOUDY    14  10  85 SW9       29.83S WCI   2
LLOYDMINSTER   MOCLDY    21  16  79 W10       29.77S WCI  10
PRINCE ALBERT  FLURRIES  10   5  79 E2        29.88F
REGINA         CLOUDY     5   3  92 SE9       29.89F WCI  -9
YORKTON        CLOUDY    10   7  85 SW7       29.91F WCI   0
N. BATTLEFORD  MOCLDY    10   5  79 E3        29.83F



USA.gov is the U.S. government's official web portal to all federal, state and local government web resources and services.